SCP
0 0 0 0 0 0 0 0 0 0 0 0 0 0 0 0 0 0 0 0 0 1 1 0 0 1 1 1 1 1 1 1 1 1 1 1 1 1 1 1 0 0 0
0 0 0 0 0 0 0 0 0 0 0 0 0 0 0 0 0 0 0 0 0 1 1 1 0 1 1 1 1 1 1 1 1 1 1 1 1 1 1 1 1 1 0
0 0 0 0 0 0 0 0 0 0 0 0 0 0 0 0 0 0 0 0 0 0 1 1 0 0 0 0 0 0 1 1 1 1 1 1 1 1 1 1 1 1 1
0 0 0 0 0 0 0 0 0 0 0 0 0 0 0 0 0 0 0 0 0 0 0 0 0 0 0 0 0 0 0 1 1 1 1 1 1 1 1 1 1 1 1
0 0 0 0 0 0 0 0 0 0 0 0 0 0 0 0 0 0 0 0 0 0 0 0 0 0 0 0 0 0 0 1 1 1 1 1 1 1 1 1 1 1 1
0 0 0 0 0 0 0 0 0 0 0 0 0 0 0 0 0 0 0 0 0 0 0 0 0 0 0 1 1 1 0 0 1 1 1 0 0 0 0 1 1 1 1
0 0 0 0 0 0 0 0 0 0 0 0 0 0 0 0 0 0 0 0 0 0 0 0 0 0 0 1 1 1 1 1 1 1 1 0 0 1 1 1 1 1 1
0 0 0 0 0 0 0 0 0 0 0 0 0 0 0 0 0 0 0 0 0 0 0 0 0 0 0 0 1 1 1 1 1 1 1 0 0 1 1 1 1 1 1
0 0 0 0 0 0 0 0 0 0 0 0 0 0 0 0 0 0 0 0 0 0 0 0 0 0 0 0 0 0 1 1 1 1 1 1 1 1 1 2 2 1 1
0 0 0 0 0 0 0 0 0 0 0 0 0 0 0 0 0 0 0 0 0 0 0 0 0 0 0 0 0 0 0 0 1 1 1 1 1 1 1 1 2 2 2
0 0 0 0 0 0 0 0 0 0 0 0 0 0 0 0 0 0 0 0 0 0 0 0 0 0 0 0 0 0 0 0 0 1 1 1 1 1 1 1 1 2 2
0 0 0 0 0 0 0 0 0 0 0 0 0 0 0 0 0 0 0 0 0 0 0 0 0 0 0 0 0 0 0 0 0 0 0 0 0 0 1 1 1 1 1
0 0 0 0 0 0 0 0 0 0 0 0 0 0 0 0 0 0 0 0 0 0 0 0 0 0 0 0 0 0 0 0 0 0 0 1 1 1 1 1 1 1 1
0 0 0 0 0 0 0 0 0 0 0 0 0 0 0 0 0 0 0 0 0 0 0 0 0 0 0 0 0 0 0 0 0 0 0 1 1 1 1 1 1 1 1
0 0 0 0 0 0 0 0 0 0 0 0 0 0 0 0 0 0 0 0 0 0 0 0 0 0 0 0 0 0 0 0 0 0 0 0 1 1 1 1 1 1 1
0 0 0 0 0 0 0 0 0 0 0 0 0 0 0 0 0 0 0 0 0 0 0 0 0 0 0 0 0 0 0 0 0 0 0 0 0 0 1 1 1 1 1
0 0 0 0 0 0 0 0 0 0 0 0 0 0 0 0 0 0 0 0 0 0 0 0 0 0 0 0 0 0 0 0 0 0 0 0 0 0 0 0 0 0 0
0 0 0 0 0 0 0 0 0 0 0 0 0 0 0 0 0 0 0 0 0 0 0 0 0 0 0 0 0 0 0 0 0 0 0 0 0 0 0 0 0 0 0
0 0 0 0 0 0 0 0 0 0 0 0 0 0 0 0 0 0 0 0 0 0 0 0 0 0 0 0 0 0 0 0 0 0 0 0 0 0 0 0 0 0 0
0 0 0 0 0 0 0 0 0 0 0 0 0 0 0 0 0 0 0 0 0 0 0 0 0 0 0 0 0 0 0 0 0 0 0 0 0 0 0 0 0 0 0
0 0 0 0 0 0 0 0 0 0 0 0 0 0 0 0 0 0 0 0 0 0 0 0 0 0 0 0 0 0 0 0 0 0 0 0 0 0 0 0 0 0 0
0 0 0 0 0 0 0 0 0 0 0 0 0 0 0 0 0 0 0 0 0 0 0 0 0 0 0 0 0 0 0 0 0 0 0 0 0 0 0 0 0 0 0
0 0 0 0 0 0 0 0 0 0 0 0 0 0 0 0 0 0 0 0 0 0 0 0 0 0 0 0 0 0 0 0 0 0 0 0 0 0 0 0 0 0 0
0 0 0 0 0 0 0 0 0 0 0 0 0 0 0 0 0 0 0 0 0 0 0 0 0 0 0 0 0 0 0 0 0 0 0 0 0 0 0 0 0 0 0
0 0 0 0 0 0 0 0 0 0 0 0 0 0 0 0 0 0 0 0 0 0 0 0 0 0 0 0 0 0 0 0 0 0 0 0 0 0 0 0 0 0 0
0 0 0 0 0 0 0 0 0 0 0 0 0 0 0 0 0 0 0 0 0 0 0 0 0 0 0 0 0 0 0 0 0 0 0 0 0 0 0 0 0 0 0
Wind_Speed
2 2 2 2 2 2 3 3 3 4 4 4 4 4 4 4 4 4 4 10 11 11 10 10 10 10 11 11 11 11 11 11 10 10 10 10 10 9 9 9 8 7 7
2 2 2 2 2 2 2 3 3 4 3 3 4 4 4 4 4 5 4 6 10 11 11 10 10 10 10 10 11 11 11 10 10 10 9 9 9 9 9 9 9 8 8
2 2 2 2 2 2 3 3 4 4 4 4 4 4 3 3 4 5 5 4 5 9 11 11 10 10 10 10 10 10 10 10 10 9 9 9 9 8 9 9 9 8 8
3 2 2 2 2 2 3 3 3 3 4 3 3 3 3 3 4 4 4 4 4 5 8 11 11 10 9 9 9 9 9 9 9 8 8 9 9 9 9 8 8 8 9
2 2 2 2 2 3 3 3 3 3 3 3 3 3 3 3 3 4 4 4 4 5 4 8 11 11 10 9 8 9 9 9 9 8 8 8 8 8 8 8 8 8 8
3 2 2 2 3 3 3 3 3 3 2 2 3 4 3 3 3 4 3 4 4 5 5 5 5 7 10 10 8 8 8 8 8 8 8 8 8 8 8 8 8 8 8
3 3 2 2 2 3 2 3 3 3 2 2 3 3 3 4 4 3 3 3 4 4 5 5 4 4 4 9 9 8 7 7 7 7 7 7 7 7 7 7 7 8 8
2 3 3 2 2 3 3 3 3 2 1 1 2 2 2 3 4 4 3 3 3 3 4 5 5 4 4 3 6 9 8 7 6 6 6 6 6 6 6 6 6 6 7
2 2 2 3 3 3 2 2 2 3 2 1 1 2 2 1 1 3 3 3 3 3 3 3 4 4 4 3 3 6 8 7 7 6 5 5 5 5 5 5 5 5 6
2 2 3 3 3 2 2 2 2 2 3 1 1 1 1 3 2 1 2 3 3 3 3 3 3 3 4 3 4 6 7 7 6 6 6 6 6 5 5 4 5 5 5
2 2 2 3 3 2 2 2 2 2 1 2 1 1 1 2 2 2 1 2 2 2 2 2 2 2 3 3 2 4 6 6 6 7 6 7 7 7 6 5 6 6 5
1 1 2 2 2 2 2 2 2 2 1 2 1 1 2 2 2 2 2 1 1 2 2 2 2 2 2 2 3 5 5 5 6 6 6 7 7 7 7 6 6 6 6
0 0 1 2 2 2 2 2 2 2 2 2 1 1 1 1 2 2 2 1 0 1 2 1 1 2 2 2 2 5 4 5 5 5 5 6 6 6 7 7 6 6 6
2 2 2 2 2 2 3 3 2 2 2 2 2 1 1 1 1 2 3 3 1 1 1 2 2 1 2 1 3 4 2 4 5 5 5 5 5 5 6 6 6 6 6
2 2 2 2 2 2 3 3 2 2 2 2 1 1 1 1 1 1 1 2 3 2 1 2 1 2 1 1 2 2 2 3 4 4 4 4 4 4 5 5 5 5 5
2 2 2 2 2 2 3 3 2 2 2 1 1 2 1 1 1 1 1 1 1 3 2 2 1 1 1 1 2 2 2 3 3 3 3 3 4 3 4 4 5 4 4
2 3 2 2 2 2 2 3 2 2 2 1 1 2 1 1 1 1 1 1 1 2 2 1 1 1 1 1 2 2 2 2 2 3 2 3 3 3 3 3 4 4 4
2 3 3 3 3 2 2 3 2 2 2 2 1 2 1 1 1 1 1 1 1 1 2 1 1 1 1 1 1 2 2 2 2 3 2 2 2 3 2 2 3 3 3
2 2 3 3 3 3 3 3 3 2 2 2 2 2 2 2 2 1 1 1 1 1 1 2 1 1 1 0 1 2 2 2 2 2 3 3 3 3 3 3 3 3 3
3 2 2 2 3 3 3 3 3 2 2 2 2 2 3 3 3 3 2 2 2 1 1 1 1 1 1 1 0 1 2 2 2 2 3 3 3 4 4 3 3 3 2
3 3 2 2 2 2 3 3 3 3 3 2 1 1 2 3 4 3 2 3 3 2 1 1 1 1 1 1 1 1 1 2 2 1 2 2 2 2 3 4 3 3 2
2 2 2 2 2 2 3 5 4 3 3 3 2 2 2 2 3 3 3 4 5 4 3 2 2 2 3 3 2 2 1 0 2 1 1 2 1 2 3 2 3 3 3
2 2 2 2 3 3 4 5 6 4 3 3 3 2 2 1 1 1 2 2 3 5 5 4 4 5 4 4 3 2 2 2 3 2 0 2 1 2 3 3 5 4 4
2 3 3 3 3 4 4 5 5 3 3 3 4 4 3 3 3 3 2 2 2 3 4 4 5 5 5 4 5 4 3 2 1 1 1 1 2 2 3 3 5 4 4
3 3 3 4 4 4 5 5 4 2 2 3 3 3 4 4 5 4 3 2 2 3 3 4 5 4 5 4 3 3 2 1 1 2 1 1 1 2 2 3 3 4 4
3 3 3 4 4 5 5 6 6 3 3 3 3 3 6 6 6 5 4 4 4 4 2 1 2 3 3 3 4 4 4 3 2 2 2 2 1 1 2 2 2 2 3
Wind_Direction
86 71 61 56 55 59 70 70 69 65 61 56 55 57 48 40 32 29 18 35 45 48 54 61 66 67 67 69 73 76 73 73 73 73 74 73 74 74 72 71 69 65 62
102 95 78 65 60 64 74 80 80 76 64 60 54 49 46 40 34 32 25 25 34 39 46 54 63 67 69 71 72 73 70 70 70 71 72 73 71 72 70 66 61 59 59
103 103 97 84 79 82 80 77 73 74 70 61 52 42 42 39 38 34 28 22 21 30 37 46 56 63 64 67 69 72 71 69 67 65 68 67 65 66 66 63 59 56 57
106 100 100 91 88 88 88 88 82 78 69 64 54 37 35 34 35 36 32 28 24 23 26 35 43 52 58 60 63 69 71 72 69 65 66 66 63 62 62 61 58 55 54
97 103 105 104 101 94 91 102 85 92 90 78 69 50 36 36 33 36 34 29 28 28 24 26 33 41 48 52 57 64 69 70 67 64 65 65 62 59 58 58 56 53 52
92 100 103 106 107 103 92 95 96 80 90 91 78 59 43 39 39 35 31 32 31 31 31 28 24 26 36 42 49 59 64 66 64 62 61 60 61 59 57 53 51 50 49
99 101 103 104 105 111 116 113 106 91 76 88 82 54 32 40 46 34 26 33 29 27 33 32 27 24 24 33 38 48 56 60 62 58 56 55 56 57 56 52 51 49 47
110 116 114 117 114 110 102 104 111 105 78 62 102 93 30 9 17 27 25 36 24 23 30 32 28 25 20 21 30 42 44 47 54 55 54 53 53 53 52 50 50 48 46
107 108 118 116 113 115 122 124 130 128 133 48 74 128 133 191 336 358 20 28 22 24 17 21 26 20 20 21 15 34 40 39 45 46 48 49 46 45 45 47 49 47 47
98 106 113 114 112 111 119 134 118 124 134 142 56 60 126 151 145 4 350 4 16 24 11 16 14 11 12 12 28 42 44 39 38 43 46 43 38 39 45 50 54 52 53
66 89 110 113 115 115 121 115 104 103 125 143 147 127 92 75 111 144 245 330 356 352 352 352 359 3 2 359 5 39 41 42 40 38 37 35 33 39 46 54 60 56 53
41 62 99 109 119 121 129 132 122 118 112 112 120 134 149 151 164 150 173 219 296 313 338 349 352 352 356 357 14 37 39 43 44 40 35 33 30 35 43 50 52 48 43
111 120 115 122 126 135 128 121 115 111 116 115 123 134 143 155 152 147 147 173 219 307 333 337 331 348 359 1 359 24 33 50 46 41 36 34 30 33 38 40 39 38 34
183 160 139 130 125 121 118 116 107 114 102 108 105 110 114 130 135 150 157 153 147 327 335 307 323 340 340 349 7 21 14 45 45 40 38 37 34 34 35 33 32 30 27
161 143 136 128 121 122 122 119 105 108 105 105 107 110 105 103 118 132 141 155 156 175 260 280 298 326 331 343 10 9 351 25 33 30 36 39 37 35 31 24 26 24 23
155 139 131 124 118 112 111 112 107 106 105 98 111 106 98 99 92 98 123 116 135 157 198 245 249 291 332 8 25 11 350 8 16 23 27 29 29 32 31 25 24 24 19
154 151 151 137 132 127 126 121 119 118 118 107 101 118 115 117 107 90 93 100 106 127 167 263 284 308 2 356 359 356 355 344 329 349 7 16 9 9 12 14 18 20 14
155 158 150 143 144 142 143 144 151 141 145 151 157 137 146 128 116 125 122 119 148 150 158 195 270 311 283 306 337 341 346 346 313 323 333 339 340 355 357 353 360 4 6
150 146 149 158 163 161 158 161 159 158 165 176 175 169 181 151 155 163 157 155 161 134 142 156 215 252 288 320 357 331 337 334 323 320 321 328 328 333 339 343 339 338 351
158 162 165 172 176 170 166 166 158 158 163 174 180 183 189 184 188 182 180 182 150 122 119 134 189 252 272 283 135 288 321 329 317 330 337 332 325 328 330 332 323 320 328
171 170 163 171 174 175 180 171 168 166 167 171 192 207 214 207 201 191 187 182 159 153 151 164 203 233 255 235 234 226 263 306 302 313 336 330 329 321 319 318 312 310 317
167 157 172 182 194 210 192 176 170 176 178 181 202 232 242 222 219 219 210 191 177 174 182 185 206 220 237 226 211 207 202 313 296 297 340 308 325 299 297 289 298 301 298
175 179 195 195 215 230 207 190 182 179 189 199 203 206 230 225 198 202 224 223 220 217 199 189 202 224 223 214 190 200 207 204 233 251 156 283 302 291 292 300 300 297 302
190 204 212 212 220 237 222 209 192 182 200 212 210 205 208 218 215 198 191 209 236 245 231 212 212 229 227 207 189 192 196 201 269 270 173 239 280 286 306 304 304 305 315
208 216 218 215 219 238 230 213 192 182 207 226 225 216 211 216 229 208 180 202 248 273 264 238 235 249 259 238 181 139 151 157 258 266 206 200 263 292 298 294 299 310 313
215 218 226 224 223 232 231 216 198 184 206 227 233 231 228 226 229 212 193 196 225 247 241 267 285 297 279 255 218 190 185 187 206 250 218 187 223 295 307 293 298 308 306